Time,TemperatureF,DewpointF,PressureIn,WindDirection,WindDirectionDegrees,WindSpeedMPH,WindSpeedGustMPH,Humidity,HourlyPrecipIn,Conditions,Clouds,dailyrainin,SoftwareType,DateUTC
2013-12-07 00:12:00,34.0,28.0,30.09,West,280,0.0,5.0,79,0.00,,,0.39,,2013-12-07 08:12:00,
2013-12-07 00:21:00,34.0,28.0,30.09,West,280,0.0,5.0,79,0.00,,,0.39,,2013-12-07 08:21:00,
2013-12-07 00:42:00,34.0,28.0,30.10,West,280,0.0,3.0,79,0.00,,,0.39,,2013-12-07 08:42:00,
2013-12-07 00:52:00,34.0,28.0,30.10,West,280,0.0,3.0,79,0.00,,,0.39,,2013-12-07 08:52:00,
2013-12-07 01:12:00,33.0,26.0,30.10,NW,317,3.0,6.0,75,0.00,,,0.39,,2013-12-07 09:12:00,
2013-12-07 01:22:00,33.0,26.0,30.10,NW,317,3.0,6.0,75,0.00,,,0.39,,2013-12-07 09:22:00,
2013-12-07 01:43:00,33.0,25.0,30.10,NW,314,2.0,5.0,73,0.00,,,0.39,,2013-12-07 09:43:00,
2013-12-07 01:53:00,33.0,25.0,30.10,NW,314,2.0,5.0,73,0.00,,,0.39,,2013-12-07 09:53:00,
2013-12-07 02:23:00,32.0,25.0,30.12,WSW,245,1.0,3.0,74,0.00,,,0.39,,2013-12-07 10:23:00,
2013-12-07 02:33:00,32.0,25.0,30.12,WSW,245,1.0,3.0,74,0.00,,,0.39,,2013-12-07 10:33:00,
2013-12-07 02:43:00,32.0,25.0,30.12,WSW,245,1.0,3.0,74,0.00,,,0.39,,2013-12-07 10:43:00,
2013-12-07 02:53:00,32.0,25.0,30.12,WSW,245,1.0,3.0,74,0.00,,,0.39,,2013-12-07 10:53:00,
2013-12-07 03:12:00,32.0,25.0,30.14,WSW,245,1.0,2.0,76,0.00,,,0.39,,2013-12-07 11:12:00,
2013-12-07 03:22:00,32.0,25.0,30.14,WSW,245,1.0,2.0,76,0.00,,,0.39,,2013-12-07 11:22:00,
2013-12-07 03:42:00,31.0,25.0,30.14,WSW,245,0.0,2.0,78,0.00,,,0.39,,2013-12-07 11:42:00,
2013-12-07 03:52:00,31.0,25.0,30.14,WSW,245,0.0,2.0,78,0.00,,,0.39,,2013-12-07 11:52:00,
2013-12-07 04:12:00,30.0,25.0,30.15,WSW,246,1.0,2.0,80,0.00,,,0.39,,2013-12-07 12:12:00,
2013-12-07 04:22:00,30.0,25.0,30.15,WSW,246,1.0,2.0,80,0.00,,,0.39,,2013-12-07 12:22:00,
2013-12-07 04:42:00,30.0,24.0,30.16,WSW,245,2.0,2.0,79,0.00,,,0.39,,2013-12-07 12:42:00,
2013-12-07 04:52:00,30.0,24.0,30.16,WSW,245,2.0,2.0,79,0.00,,,0.39,,2013-12-07 12:52:00,
2013-12-07 05:11:00,30.0,24.0,30.17,WSW,245,2.0,3.0,78,0.00,,,0.39,,2013-12-07 13:11:00,
2013-12-07 05:22:00,30.0,24.0,30.17,WSW,245,2.0,3.0,78,0.00,,,0.39,,2013-12-07 13:22:00,
2013-12-07 05:42:00,30.0,23.0,30.18,WSW,253,2.0,4.0,74,0.00,,,0.39,,2013-12-07 13:42:00,
2013-12-07 05:52:00,30.0,23.0,30.18,WSW,253,2.0,4.0,74,0.00,,,0.39,,2013-12-07 13:52:00,
2013-12-07 06:12:00,29.0,21.0,30.20,NW,306,2.0,6.0,73,0.00,,,0.38,,2013-12-07 14:12:00,
2013-12-07 06:21:00,29.0,21.0,30.20,NW,306,2.0,6.0,73,0.00,,,0.38,,2013-12-07 14:21:00,
2013-12-07 06:42:00,28.0,20.0,30.22,NE,44,3.0,4.0,73,0.00,,,0.38,,2013-12-07 14:42:00,
2013-12-07 06:52:00,28.0,20.0,30.22,NE,44,3.0,4.0,73,0.00,,,0.38,,2013-12-07 14:52:00,
2013-12-07 07:11:00,28.0,21.0,30.23,West,280,2.0,3.0,74,0.00,,,0.34,,2013-12-07 15:11:00,
2013-12-07 07:21:00,28.0,21.0,30.23,West,280,2.0,3.0,74,0.00,,,0.34,,2013-12-07 15:21:00,
2013-12-07 07:43:00,28.0,21.0,30.25,West,268,1.0,3.0,74,0.00,,,0.34,,2013-12-07 15:43:00,
2013-12-07 07:54:00,28.0,21.0,30.25,West,268,1.0,3.0,74,0.00,,,0.34,,2013-12-07 15:54:00,
2013-12-07 08:13:00,27.0,20.0,30.26,West,269,2.0,4.0,75,0.00,,,0.31,,2013-12-07 16:13:00,
2013-12-07 08:23:00,27.0,20.0,30.26,West,269,2.0,4.0,75,0.00,,,0.31,,2013-12-07 16:23:00,
2013-12-07 08:43:00,27.0,19.0,30.28,NNW,345,1.0,4.0,72,0.00,,,0.31,,2013-12-07 16:43:00,
2013-12-07 08:53:00,28.0,19.0,30.30,North,0,3.0,4.0,69,0.00,,,0.28,,2013-12-07 16:53:00,
2013-12-07 09:02:00,28.0,19.0,30.30,North,0,3.0,4.0,69,0.00,,,0.28,,2013-12-07 17:02:00,
2013-12-07 09:12:00,28.0,19.0,30.30,North,0,3.0,4.0,69,0.00,,,0.28,,2013-12-07 17:12:00,
2013-12-07 09:22:00,28.0,19.0,30.30,North,0,3.0,4.0,69,0.00,,,0.28,,2013-12-07 17:22:00,
2013-12-07 09:43:00,28.0,18.0,30.31,NW,316,0.0,7.0,67,0.00,,,0.28,,2013-12-07 17:43:00,
2013-12-07 09:52:00,28.0,18.0,30.31,NW,316,0.0,7.0,67,0.00,,,0.28,,2013-12-07 17:52:00,
2013-12-07 10:12:00,29.0,19.0,30.31,NW,316,2.0,4.0,67,0.00,,,0.26,,2013-12-07 18:12:00,
2013-12-07 10:22:00,29.0,19.0,30.31,NW,316,2.0,4.0,67,0.00,,,0.26,,2013-12-07 18:22:00,
2013-12-07 10:43:00,32.0,20.0,30.32,NW,316,3.0,4.0,62,0.00,,,0.26,,2013-12-07 18:43:00,
2013-12-07 10:52:00,32.0,20.0,30.32,NW,316,3.0,4.0,62,0.00,,,0.26,,2013-12-07 18:52:00,
2013-12-07 11:11:00,34.0,22.0,30.32,NW,316,1.0,4.0,61,0.00,,,0.26,,2013-12-07 19:11:00,
2013-12-07 11:22:00,34.0,22.0,30.32,NW,316,1.0,4.0,61,0.00,,,0.26,,2013-12-07 19:22:00,
2013-12-07 11:42:00,34.0,20.0,30.31,NW,316,1.0,5.0,57,0.00,,,0.26,,2013-12-07 19:42:00,
2013-12-07 11:52:00,34.0,20.0,30.31,NW,316,1.0,5.0,57,0.00,,,0.26,,2013-12-07 19:52:00,
2013-12-07 12:11:00,36.0,23.0,30.32,NE,44,2.0,4.0,59,0.00,,,0.24,,2013-12-07 20:11:00,
2013-12-07 12:22:00,36.0,23.0,30.32,NE,44,2.0,4.0,59,0.00,,,0.24,,2013-12-07 20:22:00,
2013-12-07 12:42:00,36.0,22.0,30.32,NE,34,2.0,6.0,56,0.00,,,0.24,,2013-12-07 20:42:00,
2013-12-07 12:53:00,36.0,22.0,30.32,NE,34,2.0,6.0,56,0.00,,,0.24,,2013-12-07 20:53:00,
2013-12-07 13:11:00,34.0,20.0,30.32,North,0,4.0,4.0,55,0.00,,,0.07,,2013-12-07 21:11:00,
2013-12-07 13:22:00,34.0,20.0,30.32,North,0,4.0,4.0,55,0.00,,,0.07,,2013-12-07 21:22:00,
2013-12-07 13:43:00,34.0,20.0,30.32,West,265,4.0,5.0,57,0.00,,,0.07,,2013-12-07 21:43:00,
2013-12-07 13:53:00,34.0,20.0,30.32,West,265,4.0,5.0,57,0.00,,,0.07,,2013-12-07 21:53:00,
2013-12-07 14:13:00,33.0,20.0,30.33,North,0,1.0,5.0,58,0.00,,,0.06,,2013-12-07 22:13:00,
2013-12-07 14:23:00,33.0,20.0,30.33,North,0,1.0,5.0,58,0.00,,,0.06,,2013-12-07 22:23:00,
2013-12-07 14:42:00,33.0,21.0,30.35,NW,308,2.0,4.0,60,0.00,,,0.06,,2013-12-07 22:42:00,
2013-12-07 14:53:00,33.0,21.0,30.35,NW,308,2.0,4.0,60,0.00,,,0.06,,2013-12-07 22:53:00,
2013-12-07 15:12:00,33.0,21.0,30.35,WNW,291,2.0,4.0,60,0.00,,,0.06,,2013-12-07 23:12:00,
2013-12-07 15:21:00,33.0,21.0,30.35,WNW,291,2.0,4.0,60,0.00,,,0.06,,2013-12-07 23:21:00,
2013-12-07 15:42:00,33.0,21.0,30.37,NNW,335,5.0,5.0,61,0.00,,,0.06,,2013-12-07 23:42:00,
2013-12-07 15:52:00,33.0,21.0,30.37,NNW,335,5.0,5.0,61,0.00,,,0.06,,2013-12-07 23:52:00,
2013-12-07 16:11:00,32.0,21.0,30.39,NW,313,3.0,4.0,63,0.00,,,0.02,,2013-12-08 00:11:00,
2013-12-07 16:22:00,32.0,21.0,30.39,NW,313,3.0,4.0,63,0.00,,,0.02,,2013-12-08 00:22:00,
2013-12-07 16:42:00,31.0,21.0,30.40,NE,46,3.0,6.0,66,0.00,,,0.02,,2013-12-08 00:42:00,
2013-12-07 16:52:00,31.0,21.0,30.40,NE,46,3.0,6.0,66,0.00,,,0.02,,2013-12-08 00:52:00,
2013-12-07 17:12:00,30.0,20.0,30.39,NE,44,3.0,7.0,67,0.00,,,0.02,,2013-12-08 01:12:00,
2013-12-07 17:22:00,30.0,20.0,30.39,NE,44,3.0,7.0,67,0.00,,,0.02,,2013-12-08 01:22:00,
2013-12-07 17:42:00,29.0,20.0,30.39,NE,55,2.0,4.0,69,0.00,,,0.02,,2013-12-08 01:42:00,
2013-12-07 17:52:00,29.0,20.0,30.39,NE,55,2.0,4.0,69,0.00,,,0.02,,2013-12-08 01:52:00,
2013-12-07 18:21:00,28.0,20.0,30.39,NNE,28,2.0,6.0,71,0.00,,,0.00,,2013-12-08 02:21:00,
2013-12-07 18:32:00,28.0,20.0,30.39,NNE,28,2.0,6.0,71,0.00,,,0.00,,2013-12-08 02:32:00,
2013-12-07 18:43:00,28.0,20.0,30.39,NNE,28,2.0,6.0,71,0.00,,,0.00,,2013-12-08 02:43:00,
2013-12-07 18:52:00,28.0,20.0,30.39,NNE,28,2.0,6.0,71,0.00,,,0.00,,2013-12-08 02:52:00,
2013-12-07 19:11:00,28.0,20.0,30.39,NNE,19,0.0,5.0,72,0.00,,,0.00,,2013-12-08 03:11:00,
2013-12-07 19:22:00,28.0,20.0,30.39,NNE,19,0.0,5.0,72,0.00,,,0.00,,2013-12-08 03:22:00,
2013-12-07 19:44:00,27.0,19.0,30.40,North,0,2.0,4.0,72,0.00,,,0.00,,2013-12-08 03:44:00,
2013-12-07 19:54:00,27.0,19.0,30.40,North,0,2.0,4.0,72,0.00,,,0.00,,2013-12-08 03:54:00,
2013-12-07 20:02:00,-999.0,-99.9,30.41,ESE,109,1.0,4.0,-999,0.00,,,0.00,,2013-12-08 04:02:00,
2013-12-07 20:13:00,27.0,20.0,30.41,ESE,109,1.0,4.0,73,0.00,,,0.00,,2013-12-08 04:13:00,
2013-12-07 20:23:00,27.0,20.0,30.41,ESE,109,1.0,4.0,73,0.00,,,0.00,,2013-12-08 04:23:00,
2013-12-07 20:43:00,27.0,20.0,30.41,SE,137,2.0,5.0,75,0.00,,,0.00,,2013-12-08 04:43:00,
2013-12-07 20:53:00,27.0,20.0,30.41,SE,137,2.0,5.0,75,0.00,,,0.00,,2013-12-08 04:53:00,
2013-12-07 21:12:00,27.0,20.0,30.43,SE,130,2.0,3.0,75,0.00,,,0.00,,2013-12-08 05:12:00,
2013-12-07 21:22:00,27.0,20.0,30.43,SE,130,2.0,3.0,75,0.00,,,0.00,,2013-12-08 05:22:00,
2013-12-07 21:43:00,26.0,19.0,30.44,East,95,3.0,3.0,75,0.00,,,0.00,,2013-12-08 05:43:00,
2013-12-07 21:53:00,26.0,19.0,30.44,East,93,2.0,5.0,74,0.00,,,0.00,,2013-12-08 05:53:00,
2013-12-07 22:02:00,26.0,19.0,30.44,East,93,2.0,5.0,74,0.00,,,0.00,,2013-12-08 06:02:00,
2013-12-07 22:12:00,26.0,19.0,30.44,East,93,2.0,5.0,74,0.00,,,0.00,,2013-12-08 06:12:00,
2013-12-07 22:22:00,26.0,19.0,30.44,East,93,2.0,5.0,74,0.00,,,0.00,,2013-12-08 06:22:00,
2013-12-07 22:42:00,26.0,19.0,30.45,North,0,0.0,4.0,75,0.00,,,0.00,,2013-12-08 06:42:00,
2013-12-07 22:52:00,26.0,19.0,30.45,North,0,0.0,4.0,75,0.00,,,0.00,,2013-12-08 06:52:00,
2013-12-07 23:12:00,26.0,20.0,30.45,North,0,2.0,2.0,77,0.00,,,0.00,,2013-12-08 07:12:00,
2013-12-07 23:22:00,26.0,20.0,30.45,North,0,2.0,2.0,77,0.00,,,0.00,,2013-12-08 07:22:00,
2013-12-07 23:42:00,25.0,19.0,30.45,North,0,2.0,3.0,78,0.00,,,0.00,,2013-12-08 07:42:00,
2013-12-07 23:53:00,25.0,19.0,30.45,North,0,2.0,3.0,78,0.00,,,0.00,,2013-12-08 07:53:00,